Weather in Kromi

Russia / Oryol Oblast     52°41′21″N   35°46′25″E
temp.,
°C
wind,
m/s
gust,
m/s
humid.,
%
clouds,
%
prec.,
mm/h
press.,
hPa
HPBL,
m
13 may, thu
thu1300:00+6e379540 0.0 1016144
03:00+6ese499666 0.0 1015200
06:00+8ese41294100 0.3 1014481
09:00+10se61092100 2.6 1013877
12:00+13s697022 0.8 10131419
15:00+14s686784 1.1 10131495
18:00+14s477178 0.1 1014596
21:00+10s22845 0.1 101514
14 may, fri
fri1400:00+8se338763 0.0 101525
03:00+8ese3587100 0.0 101583
06:00+10ese4991100 0.0 1015204
09:00+14ese5888100 0.2 1014313
12:00+18se697980 2.3 1012738
15:00+20sse71177100 6.1 10111262
18:00+19sse71281100 0.8 1009716
21:00+15sse51493100 3.4 1009362
15 may, sat
sat1500:00+14sse359548 1.9 100978
03:00+13s229430 1.9 100918
06:00+13sse359383 0.0 100996
09:00+17s69810 0.1 1010544
12:00+19ssw810684 0.6 10101413
15:00+19ssw710705 1.8 10101592
18:00+17ssw610797 1.6 1011854
21:00+13ssw411924 2.3 1012277
16 may, sun
sun1600:00+11ssw410940 0.0 1012200
03:00+10ssw39955 0.0 1013181
06:00+11ssw39955 0.0 1014240
09:00+15sw58813 0.0 1014673
12:00+19sw466620 0.0 10151320
15:00+20sw466166 0.1 10141503
18:00+20ssw246891 0.0 1013190
21:00+15w117994 0.0 101411
17 may, mon
mon1700:00+13ene228458 0.0 101412
03:00+12ene358835 0.0 101463
06:00+14ene4118587 0.0 1013267
09:00+19e611777 0.0 1011532
12:00+23ese696516 0.0 1009786
15:00+25se610635 0.0 10081243
18:00+23ese7136913 0.0 1007563
21:00+19ese61577100 0.0 1007385